Powrót do katalogu

O3B FM6

AktywnyŁącznośćMEO
NORAD 40081·PAYLOAD·🇱🇺 Luxembourg

Wystrzelony Jul 10, 2014 z Guiana Space Centre

Loading…

Następne Przeloty (najbliższe 24 godziny)

TLE

ŚwieżeSource: CelesTrak SupGP

Epoka: Sep 13, 2026, 13:00 UTC

1 40081C 14038C   26256.54166667  .00000000  00000+0  00000+0 0  2565
2 40081   0.0459 352.9226 0002577 178.9635  28.3350  5.00115904    19

Śledź O3B FM6 w czasie rzeczywistym z AllMySat

Download on the App Store